Home > Weather > Plano > Past weeks

Flag for USA Past Weather in Plano, Texas, USA — Yesterday and Last 2 Weeks

Now
74 °F

Sunny.


Feels Like: 75 °F
Forecast: 74 / 85 °F
Wind: 8 mph from Southeast

Location: McKinney Municipal Airport

Current Time: May 29, 2016 at 12:17:47 PM

Latest Report: May 29, 2016 at 10:53 AM


Visibility: 10 mi

Pressure: 30.09 "Hg

Humidity: 74%

Dew Point: 65 °F

Location of PlanoLocation

Past Weather in Plano — Graph

°F

Plano Temperature Yesterday

Maximum temperature yesterday: 83 °F (at 5:53 PM)
Minimum temperature yesterday: 66 °F (at 4:53 AM)
Average temperature yesterday: 74 °F

High & Low Weather Summary for the Past Weeks

 TemperatureHumidityPressure
High86 °F (May 25, 4:53 PM)100% (May 21, 4:53 AM)30.20 "Hg (May 21, 4:53 AM)
Low55 °F (May 15, 1:53 AM)43% (May 14, 3:53 PM)29.64 "Hg (May 27, 2:53 AM)
Average70 °F78%29.97 "Hg
* Reported May 14 9:53 AM — May 29 9:53 AM, Plano, Weather by CustomWeather, © 2016

Note: Actual official high and low records may vary slightly from our data, if they occured in-between our weather recording intervals... More about our weather records

Advertising

Plano Weather History for the Previous 24 Hours

Scroll right to see more
 ConditionsComfort  
Time TempWeatherWind HumidityBarometerVisibility
9:53 AM
Sun, May 29
75 °FPassing clouds.9 mph62%30.08 "Hg10 mi
8:53 AM70 °FLight rain. Partly sunny.12 mph76%30.08 "Hg10 mi
7:53 AM72 °FOvercast.13 mph66%30.10 "Hg10 mi
6:53 AM72 °FThundershowers. Passing clouds.14 mph61%30.11 "Hg10 mi
5:53 AM73 °FClear.6 mph62%30.06 "Hg10 mi
4:53 AM75 °FClear.No wind94%30.04 "Hg8 mi
3:53 AM74 °FPassing clouds.3 mph94%30.03 "Hg7 mi
2:53 AM74 °FClear.3 mph97%30.01 "Hg7 mi
1:53 AM75 °FLight rain. Partly cloudy.7 mph94%30.04 "Hg8 mi
12:53 AM75 °FPassing clouds.No wind90%30.03 "Hg8 mi
11:53 PM
Sat, May 28
75 °FClear.6 mph90%29.99 "Hg9 mi
10:53 PM76 °FClear.5 mph88%30.01 "Hg10 mi
9:53 PM76 °FPassing clouds.6 mph88%29.99 "Hg10 mi
8:53 PM78 °FSunny.6 mph84%29.96 "Hg10 mi
7:53 PM80 °FPartly sunny.7 mph76%29.95 "Hg10 mi
6:53 PM82 °FPartly sunny.8 mph74%29.93 "Hg10 mi
5:53 PM83 °FPassing clouds.13 mph68%29.92 "Hg10 mi
4:53 PM82 °FSunny.13 mph70%29.93 "Hg10 mi
3:53 PM82 °FScattered clouds.13 mph70%29.93 "Hg10 mi
2:53 PM82 °FPassing clouds.7 mph67%29.94 "Hg10 mi
1:53 PM81 °FSunny.10 mph67%29.94 "Hg10 mi
12:53 PM79 °FPassing clouds.6 mph67%29.96 "Hg10 mi
12:00 PM77 °FScattered clouds.5 mph69%29.97 "Hg10 mi
Weather by CustomWeather, © 2016

See weather overviewHow to use our weather pages